Regional Weather Roundup
Issued by NWS Little Rock, AR

Home | Current Version | Previous Version | Text Only | Print | Product List | Glossary Off
Versions: 1 2 3 4 5 6 7 8 9 10 11 12 13 14 15 16 17 18 19 20 21 22 23 24 25 26 27 28 29 30 31 32 33 34 35 36 37 38 39 40 41 42 43 44 45 46 47 48

000
ASUS44 KLZK 212305
RWRLZK

WEATHER ROUNDUP FOR ARKANSAS
NATIONAL WEATHER SERVICE LITTLE ROCK AR
500 PM CST SUN DEC 21 2014

NOTE: "FAIR" INDICATES FEW OR NO CLOUDS BELOW 12,000 FEET WITH NO
SIGNIFICANT WEATHER AND/OR OBSTRUCTIONS TO VISIBILITY.

ARZ001-003-010-029-220000-
NORTHWEST ARKANSAS

CITY           SKY/WX    TMP DP  RH WIND       PRES   REMARKS
FAYETTEVILLE   CLOUDY    45  37  73 SE8       29.89F
FORT SMITH     CLOUDY    49  39  68 E8        29.90F
HARRISON       CLOUDY    44  37  76 SE8       29.92F
BENTONVILLE    CLOUDY    46  36  66 S8        29.89F
ROGERS         CLOUDY    45  37  73 SE8       29.89F
SILOAM SPGS    CLOUDY    45  34  65 SE9       29.89F
HIGHFILL       MOCLDY    45  38  76 S10       29.88F
SPRINGDALE     CLOUDY    45  37  76 S10       29.91F
$$

ARZ004-005-016-220000-
NORTH CENTRAL ARKANSAS

CITY           SKY/WX    TMP DP  RH WIND       PRES   REMARKS
BATESVILLE     CLOUDY    48  37  66 E8        29.98F
FLIPPIN        CLOUDY    46  34  61 SE5       29.94F
MTN HOME       CLOUDY    46  36  68 SE5       29.94F
$$

ARZ040-041-220000-
WEST CENTRAL ARKANSAS

CITY           SKY/WX    TMP DP  RH WIND       PRES   REMARKS
MENA           CLOUDY    52  43  71 SE3       29.90F
MOUNT IDA      CLOUDY    51  40  65 SE5       29.90F
$$

ARZ009-017-025-026-028-220000-
NORTHEAST ARKANSAS

CITY           SKY/WX    TMP DP  RH WIND       PRES   REMARKS
CORNING        CLOUDY    43  37  81 NE7       30.04F
JONESBORO      PTCLDY    46  39  76 NE5       30.02F
NEWPORT        CLOUDY    47  42  82 NE9       30.01F
WALNUT RIDGE   PTCLDY    43  36  75 NE7       30.01F
BLYTHEVILLE    CLEAR     45  36  70 E6        30.04F
$$

ARZ022-023-033-042-044-220000-
CENTRAL ARKANSAS

CITY           SKY/WX    TMP DP  RH WIND       PRES   REMARKS
LITTLE ROCK    MOCLDY    53  36  52 SE12      29.97F
N LITTLE ROCK  MOCLDY    51  40  66 SE13G18   29.97F
JACKSONVILLE   CLOUDY    51  37  59 E3        29.96F
SEARCY         CLOUDY    49  37  63 SE3       29.99F
HOT SPRINGS    PTCLDY    52  39  61 SE7       29.94F
RUSSELLVILLE   CLOUDY    50  37  61 E6        29.93F
CLINTON        CLOUDY    48  39  71 CALM      29.98S
$$

ARZ036-220000-
EAST ARKANSAS

CITY           SKY/WX    TMP DP  RH WIND       PRES   REMARKS
WEST MEMPHIS   CLEAR     48  38  68 S5        30.01F
$$

ARZ050-053-066-070-073-220000-
SOUTHWEST ARKANSAS

CITY           SKY/WX    TMP DP  RH WIND       PRES   REMARKS
ARKADELPHIA    FAIR      51  44  77 SE6       29.95F
CAMDEN         CLEAR     55  39  54 CALM      29.96F
TEXARKANA      MOCLDY    53  44  71 SE7       29.92F
EL DORADO      CLEAR     53  41  63 SE5       29.95F
DE QUEEN       CLOUDY    52  43  71 S7        29.90F
$$

ARZ056-057-069-220000-
SOUTHEAST ARKANSAS

CITY           SKY/WX    TMP DP  RH WIND       PRES   REMARKS
PINE BLUFF     PTCLDY    50  38  63 E9        29.97F
STUTTGART      CLEAR     52  36  54 SE6       29.99F
MONTICELLO     CLEAR     54  38  54 SE6       29.98F

$$





USA.gov is the U.S. government's official web portal to all federal, state and local government web resources and services.